Location: Unspecified
(0.0000°N, 0.0000°E)
Time: 23:22:49
(UTC+00:00)

STARLINK-32315 - Pass Details

Date: 27 April 2025
Orbit: 474 x 476 km, 53.2° (Epoch: 16 May)

Event Time Altitude Azimuth Distance (km) Brightness Sun altitude
Exits shadow 04:50:59 - 187° (S) 1,934 6.2 -16.2°
Reaches altitude 10° 04:51:51 10° 181° (S) 1,635 5.9 -16.0°
Maximum altitude 04:54:55 25° 124° (SE) 995 5.4 -15.2°
Drops below altitude 10° 04:57:59 10° 68° (ENE) 1,629 7.4 -14.5°
Sets 05:00:23 0° 54° (NE) 2,503 8.4 -13.9°
